Date,TemperatureHighF,TemperatureAvgF,TemperatureLowF,DewpointHighF,DewpointAvgF,DewpointLowF,HumidityHigh,HumidityAvg,HumidityLow,PressureMaxIn,PressureMinIn,WindSpeedMaxMPH,WindSpeedAvgMPH,GustSpeedMaxMPH,PrecipitationSumIn
2013-1-1,50.8,49.4,46.7,48.8,43.0,31.9,93,80,52,30.09,29.86,3,1,5,0.48
2013-1-2,52.5,49.3,45.5,50.6,46.9,42.7,94,91,87,30.09,29.80,3,0,4,0.16
2013-1-3,45.5,42.4,32.2,43.0,40.2,30.7,94,92,89,30.22,30.03,2,0,4,0.02
2013-1-4,54.4,36.7,26.2,36.3,30.8,24.7,94,82,39,30.31,30.17,4,0,9,0.00
2013-1-5,53.8,37.8,23.8,38.6,29.1,22.1,94,74,37,30.36,30.19,3,0,4,0.00
2013-1-6,53.4,44.6,36.2,44.2,38.5,33.9,93,80,67,30.19,29.99,3,0,6,0.00
2013-1-7,55.5,38.6,28.1,37.8,31.8,26.6,94,80,44,30.37,30.15,3,0,4,0.00
2013-1-8,53.7,42.4,28.1,44.6,37.3,26.3,93,83,61,30.39,30.29,2,0,3,0.00
2013-1-9,68.6,50.9,36.3,54.9,46.0,34.5,94,84,58,30.41,30.29,2,0,3,0.00
2013-1-10,72.5,56.8,43.6,55.9,50.3,41.7,94,81,54,30.42,30.28,3,1,5,0.00
2013-1-11,60.7,56.8,54.3,58.4,54.6,52.3,93,92,89,30.28,30.07,2,0,4,0.04
2013-1-12,75.1,61.0,54.0,64.9,57.3,52.0,94,88,67,30.11,30.01,4,0,7,0.00
2013-1-13,75.4,64.1,54.5,63.2,58.9,52.4,94,84,64,30.03,29.97,5,1,8,0.00
2013-1-14,74.9,65.9,61.2,65.8,61.0,58.0,91,84,70,30.06,29.96,3,1,7,0.00
2013-1-15,67.5,60.5,49.9,61.8,56.2,48.0,93,86,73,30.06,29.95,2,1,4,0.00
2013-1-16,52.8,49.7,46.0,51.1,47.8,44.1,94,93,93,29.97,29.90,1,0,2,0.39
2013-1-17,54.0,49.3,37.2,52.3,47.6,35.6,94,94,93,30.12,29.61,5,1,8,1.71
2013-1-18,53.2,37.9,29.7,40.8,31.5,25.4,95,82,35,30.45,30.11,3,0,5,0.01
2013-1-19,57.8,38.0,24.2,38.9,30.2,22.7,94,78,34,30.44,30.14,3,0,7,0.01
2013-1-20,42.0,35.8,33.1,36.2,32.9,31.0,93,89,75,30.14,30.09,1,0,1,0.00
2013-1-22,29.7,28.0,26.1,25.7,24.4,23.0,88,86,82,30.21,30.17,1,0,2,0.00
2013-1-23,50.5,35.0,20.6,32.3,22.8,11.8,93,66,31,30.31,30.03,5,1,8,0.00
2013-1-24,57.0,43.1,26.7,40.9,24.0,8.4,91,51,18,30.43,29.95,5,2,8,0.00
2013-1-25,28.2,24.9,21.9,15.2,12.0,9.0,72,58,45,30.46,30.36,3,1,4,0.00
2013-1-26,52.0,40.4,29.3,36.7,32.5,27.3,92,75,48,30.29,30.15,2,1,3,0.00
2013-1-27,50.1,36.1,26.2,33.8,28.7,24.5,93,77,46,30.50,30.29,3,1,4,0.00
2013-1-28,49.2,41.2,31.2,45.5,35.9,27.5,93,81,69,30.43,30.22,2,0,4,0.00
2013-1-29,74.0,56.5,37.9,60.3,50.8,36.1,94,82,59,30.22,29.96,5,1,9,0.00
2013-1-30,75.8,66.3,49.9,64.2,60.2,46.8,92,82,59,29.97,29.38,12,6,20,0.28
2013-1-31,52.4,45.1,34.5,46.9,30.1,23.5,89,58,33,30.03,29.53,8,4,13,0.00
2013-2-1,46.3,38.9,25.1,30.9,17.5,4.5,74,45,18,30.32,29.94,7,2,12,0.00
2013-2-2,51.0,35.4,19.9,36.7,19.7,12.4,92,58,24,30.35,30.02,6,2,11,0.00
2013-2-3,56.3,41.9,31.5,36.9,32.0,26.3,93,71,37,30.02,29.82,6,2,13,0.00
2013-2-4,48.1,36.9,26.1,33.9,28.0,24.0,93,73,41,30.10,29.96,4,1,5,0.00
2013-2-5,64.9,47.8,29.8,47.5,38.0,27.5,93,71,46,29.97,29.83,7,2,14,0.00
2013-2-6,70.7,48.1,32.4,45.6,36.1,30.3,94,70,24,30.13,29.92,3,0,5,0.00
2013-2-7,46.9,43.1,37.9,42.5,37.8,30.8,93,82,60,30.17,29.88,3,1,6,0.00
2013-2-8,62.0,47.6,39.5,49.5,40.6,32.4,93,78,51,30.04,29.81,4,1,8,0.00
2013-2-9,64.1,42.6,28.2,36.9,30.0,21.0,93,69,21,30.26,30.04,2,0,4,0.00
2013-2-10,61.1,47.3,32.3,48.7,36.3,27.4,92,69,35,30.39,30.12,4,1,8,0.00
2013-2-11,62.5,57.5,51.0,59.6,54.7,48.8,93,91,83,30.14,29.88,6,3,9,0.00
2013-2-12,62.0,52.7,47.0,50.8,44.1,30.7,93,77,32,30.04,29.84,2,0,5,0.00
2013-2-13,49.8,46.6,39.6,47.1,44.1,37.2,93,91,77,29.86,29.61,5,1,9,0.00
2013-2-14,52.8,40.5,30.4,41.4,35.2,28.9,94,83,56,30.02,29.82,3,0,5,0.01
2013-2-15,63.6,44.3,29.3,43.1,34.7,27.8,94,75,33,30.05,29.87,4,1,9,0.00
2013-2-16,42.9,36.3,26.9,38.2,33.5,24.6,93,90,81,29.98,29.77,2,0,4,0.00
2013-2-17,46.7,32.6,22.3,28.6,23.4,16.6,92,73,30,30.24,29.98,4,1,8,0.00
2013-2-18,57.2,38.0,20.7,35.7,25.9,19.0,93,67,30,30.35,30.17,5,1,9,0.00
2013-2-19,52.0,41.9,35.7,46.1,36.6,27.8,93,82,63,30.17,29.84,6,2,10,0.00
2013-2-20,57.6,39.9,26.1,34.8,27.0,17.3,94,68,22,30.08,29.97,4,1,9,0.00
2013-2-21,61.7,42.9,27.2,39.4,27.6,20.1,92,60,24,30.17,30.02,3,1,5,0.00
2013-2-22,47.5,41.7,38.7,37.9,35.0,26.9,92,78,46,30.20,30.11,3,0,4,0.00
2013-2-23,44.2,42.8,39.9,42.3,41.1,38.3,94,94,93,29.92,29.79,2,0,4,0.00
2013-2-24,44.1,42.9,38.8,42.5,41.2,36.9,94,94,92,29.94,29.79,2,0,3,0.01
2013-2-25,42.9,39.3,37.5,37.1,34.8,31.8,93,84,65,29.95,29.92,1,0,2,0.00
2013-2-26,43.1,42.4,41.7,41.5,40.7,39.8,94,94,93,29.65,29.63,2,1,4,0.00
2013-2-27,59.3,47.2,37.1,41.7,38.5,34.6,94,73,48,29.77,29.63,5,2,11,0.00
2013-2-28,52.4,44.1,32.2,36.6,32.7,28.7,88,66,43,29.84,29.68,3,1,7,0.00
2013-3-1,53.2,38.9,26.9,35.5,30.5,24.9,93,74,43,29.90,29.79,4,1,8,0.00
2013-3-2,49.0,39.8,33.9,37.2,34.7,31.3,92,83,53,29.88,29.78,2,0,4,0.00
2013-3-3,50.0,35.8,25.2,30.9,23.8,17.5,93,66,29,29.98,29.83,4,1,8,0.01
2013-3-4,59.1,38.9,20.6,34.8,23.3,18.0,92,61,21,30.12,29.97,4,1,6,0.00
2013-3-5,66.2,50.7,37.8,54.0,42.9,28.4,92,75,51,30.02,29.55,8,2,12,0.00
2013-3-6,52.8,42.4,31.0,42.9,28.6,24.0,83,59,38,30.08,29.58,6,2,12,0.00
2013-3-7,59.3,40.1,25.7,37.5,29.6,23.7,93,70,34,30.19,30.07,3,1,5,0.00
2013-3-8,60.7,41.8,26.5,34.8,27.5,23.1,92,63,24,30.27,30.12,3,1,7,0.00
2013-3-9,68.0,45.5,28.3,41.4,32.8,26.4,93,67,28,30.30,30.16,4,1,4,0.00
2013-3-10,69.1,50.2,33.9,46.2,38.9,31.8,93,70,31,30.24,30.08,5,1,7,0.00
2013-3-11,70.3,56.6,40.5,55.3,45.4,27.9,91,67,50,30.13,29.78,8,2,13,0.00
2013-3-12,71.2,60.2,46.0,58.6,49.0,30.0,92,70,25,29.91,29.68,5,2,13,0.01
2013-3-13,61.4,46.5,34.0,36.5,29.5,20.7,93,57,25,30.11,29.91,7,2,9,0.00
2013-3-14,57.6,40.5,26.3,33.7,23.6,17.9,86,56,22,30.26,30.10,3,1,7,0.00
2013-3-15,70.4,49.4,28.2,41.6,33.0,22.3,92,59,31,30.18,29.86,5,2,10,0.00
2013-3-16,78.5,66.6,57.0,50.3,43.3,38.5,63,45,25,29.86,29.68,9,4,20,0.00
2013-3-17,66.7,62.3,56.5,45.3,42.2,40.9,65,48,39,29.83,29.79,4,2,5,0.00
2013-3-20,58.6,51.1,39.3,36.8,24.3,12.6,89,39,19,30.06,29.74,5,2,8,0.00
2013-3-21,54.2,41.2,28.8,29.3,18.6,8.0,81,44,19,29.91,29.74,4,1,9,0.00
2013-3-22,51.8,38.7,24.7,34.1,21.1,15.4,80,51,27,30.05,29.91,4,1,8,0.00
2013-3-23,48.4,43.5,37.5,44.5,38.7,28.0,92,83,56,29.99,29.83,2,0,3,0.02
2013-3-24,45.1,43.1,40.8,42.9,41.0,38.9,93,92,90,29.84,29.50,4,1,7,0.14
2013-3-25,49.9,42.8,36.4,40.4,30.4,24.2,93,64,39,29.88,29.51,7,3,18,0.00
2013-3-26,51.5,39.3,28.5,28.9,25.8,23.7,84,60,38,30.14,29.87,3,1,8,0.00
2013-3-27,58.5,40.5,25.9,32.0,25.9,17.1,93,62,21,30.23,30.10,4,1,7,0.00
2013-3-28,62.6,42.6,26.2,34.7,26.8,20.8,92,60,21,30.27,30.12,4,1,9,0.00
2013-3-29,65.4,47.0,27.7,43.8,30.4,25.4,93,60,23,30.30,30.13,3,1,5,0.00
2013-3-30,70.5,56.0,46.2,49.0,44.5,41.9,90,69,37,30.16,29.97,3,1,6,0.00
2013-3-31,72.0,60.0,51.5,57.4,52.9,47.1,92,79,50,29.98,29.76,7,2,15,0.01
2013-4-1,59.2,59.1,59.0,56.5,56.3,56.2,91,90,90,29.78,29.78,4,2,5,0.00